Weather History for Cape Girardeau, MO

Change the Weather History Date:

Monday, June 25, 2012

  Actual Average Record
Temperature  
Mean Temperature 83 °F 78 °F  
Max Temperature 98 °F 88 °F 100 °F (1971)
Min Temperature 67 °F 67 °F 51 °F (1961)
Degree Days  
Heating Degree Days 0 0  
Month to date heating degree days 5 1  
Since 1 June heating degree days 5 1  
Since 1 July heating degree days 3346 4387  
Cooling Degree Days 18 12  
Month to date cooling degree days 243 245  
Year to date cooling degree days 588 397  
Since 1 June cooling degree days 243 245  
Growing Degree Days 32 (Base 50)    
Moisture  
Dew Point 62 °F    
Average Humidity 61    
Maximum Humidity 90    
Minimum Humidity 32    
Precipitation  
Precipitation 0.00 in 0.12 in 0.98 in (1993)
Month to date precipitation 1.37 3.02  
Year to date precipitation 11.50 24.12  
Sea Level Pressure  
Sea Level Pressure 29.85 in    
Wind  
Wind Speed 8 mph (ENE)    
Max Wind Speed 23 mph    
Max Gust Speed 29 mph    
Visibility 10 miles    
Events      
T = Trace of Precipitation, MM = Missing Value Source: NWS Daily Summary

Daily Weather History Graph

Daily Weather History Graph

Search for Another Location

Airport:

Trip Planner

Search our weather history database for the weather conditions in past years. The results will help you decide how hot, cold, wet, or windy it might be!

Date:

Astronomy

Jun. 25, 2012 Rise Set
Actual Time 5:39 AM CDT 8:22 PM CDT
Civil Twilight 5:08 AM CDT 8:53 PM CDT
Nautical Twilight 4:29 AM CDT 9:32 PM CDT
Astronomical Twilight 3:46 AM CDT 10:15 PM CDT
Moon 11:41 AM CDT (6/25) No Moon Set
Length of Visible Light 15h 44m
Length of Day
14h 43m
Waxing Crescent, 34% of the Moon is Illuminated
Jun 25
Waxing Crescent
Jun 26
First Quarter
Jul 3
Full
Jul 10
Last Quarter
Jul 18
New

Hourly Weather History & Observations

Time (CDT) Temp. Heat Index Dew Point Humidity Pressure Visibility Wind Dir Wind Speed Gust Speed Precip Events Conditions
12:53 AM 71.1 °F - 64.9 °F 81% 29.88 in 10.0 mi WSW 3.5 mph - N/A   Clear
1:53 AM 70.0 °F - 64.0 °F 81% 29.87 in 10.0 mi Calm Calm - N/A   Clear
2:53 AM 69.1 °F - 64.0 °F 84% 29.86 in 10.0 mi Calm Calm - N/A   Clear
3:53 AM 70.0 °F - 66.9 °F 90% 29.86 in 10.0 mi ESE 3.5 mph - N/A   Clear
4:53 AM 68.0 °F - 63.0 °F 84% 29.86 in 10.0 mi WNW 4.6 mph - N/A   Clear
5:53 AM 66.9 °F - 63.0 °F 87% 29.87 in 10.0 mi SW 3.5 mph - N/A   Clear
6:53 AM 72.0 °F - 64.9 °F 78% 29.88 in 10.0 mi Calm Calm - N/A   Clear
7:53 AM 79.0 °F - 66.9 °F 66% 29.88 in 10.0 mi ESE 4.6 mph - N/A   Clear
8:53 AM 87.1 °F 87.8 °F 63.0 °F 44% 29.88 in 10.0 mi Calm Calm - N/A   Clear
9:53 AM 91.0 °F 90.2 °F 59.0 °F 34% 29.88 in 10.0 mi Variable 3.5 mph - N/A   Clear
10:53 AM 91.9 °F 92.5 °F 62.1 °F 37% 29.87 in 10.0 mi Variable 3.5 mph - N/A   Partly Cloudy
11:53 AM 93.9 °F 94.8 °F 62.1 °F 35% 29.86 in 10.0 mi ENE 6.9 mph - N/A   Clear
12:53 PM 96.1 °F 97.3 °F 63.0 °F 33% 29.85 in 10.0 mi East 8.1 mph - N/A   Clear
1:53 PM 96.1 °F 97.3 °F 63.0 °F 33% 29.83 in 10.0 mi ENE 12.7 mph 16.1 mph N/A   Clear
2:53 PM 97.0 °F 98.3 °F 63.0 °F 32% 29.82 in 10.0 mi ENE 9.2 mph 18.4 mph N/A   Clear
3:53 PM 97.0 °F 97.8 °F 62.1 °F 31% 29.81 in 10.0 mi East 11.5 mph 19.6 mph N/A   Clear
5:53 PM 93.9 °F 96.1 °F 64.9 °F 38% 29.81 in 10.0 mi NE 13.8 mph - N/A   Partly Cloudy
6:53 PM 91.9 °F 94.1 °F 64.9 °F 41% 29.80 in 10.0 mi NE 16.1 mph - N/A   Clear
7:53 PM 89.1 °F 91.0 °F 64.9 °F 45% 29.81 in 10.0 mi NE 10.4 mph - N/A   Clear
8:53 PM 86.0 °F 87.3 °F 64.0 °F 48% 29.83 in 10.0 mi NNE 8.1 mph - N/A   Clear
9:53 PM 84.0 °F 84.0 °F 60.1 °F 44% 29.86 in 10.0 mi NE 13.8 mph - N/A   Clear
10:53 PM 81.0 °F - 51.1 °F 35% 29.88 in 10.0 mi NE 15.0 mph 23.0 mph N/A   Clear
11:53 PM 78.1 °F - 46.0 °F 32% 29.88 in 10.0 mi NE 12.7 mph - N/A   Clear